DLH8RV EDDS-EDDM

Flight info

Callsign DLH8RV
Flight time N/A
Altitude 21000
Route ABTAL4B ABTAL L173 RIXED Y161 RIDAR Z98 WLD T104 ROKIL ROKIL1B
Aircraft A20N/M-SDE2E3FGHIRWXY/LB1

Departure

Time 2026-05-05 19:35
Airport Stuttgart Airport (EDDS)

Arrival

Time N/A
Airport Munich Airport (EDDM)
Time Latitude Longitude Altitude Speed Heading
2026-05-05 19:05 48.68861 9.19212 1295 ft 0 kts 344°
2026-05-05 19:20 48.68846 9.19218 1295 ft 3 kts 344°
2026-05-05 19:20 48.68829 9.19225 1295 ft 3 kts 352°
2026-05-05 19:20 48.68811 9.19226 1295 ft 3 kts 15°
2026-05-05 19:21 48.68794 9.19217 1295 ft 3 kts 30°
2026-05-05 19:21 48.68781 9.19203 1295 ft 3 kts 38°
2026-05-05 19:21 48.68766 9.19185 1295 ft 3 kts 40°
2026-05-05 19:21 48.68753 9.19167 1295 ft 3 kts 42°
2026-05-05 19:22 48.68735 9.19150 1295 ft 3 kts
2026-05-05 19:22 48.68715 9.19153 1295 ft 3 kts 345°
2026-05-05 19:22 48.68712 9.19154 1295 ft 0 kts 345°
2026-05-05 19:24 48.68715 9.19153 1295 ft 2 kts 345°
2026-05-05 19:24 48.68741 9.19151 1295 ft 6 kts
2026-05-05 19:24 48.68772 9.19205 1295 ft 9 kts 67°
2026-05-05 19:25 48.68786 9.19272 1295 ft 5 kts 73°
2026-05-05 19:25 48.68793 9.19305 1295 ft 3 kts 73°
2026-05-05 19:25 48.68800 9.19345 1295 ft 7 kts 73°
2026-05-05 19:25 48.68827 9.19485 1295 ft 21 kts 73°
2026-05-05 19:26 48.68859 9.19649 1295 ft 11 kts 74°
2026-05-05 19:26 48.68881 9.19769 1294 ft 9 kts 74°
2026-05-05 19:26 48.68890 9.19860 1292 ft 11 kts 104°
2026-05-05 19:26 48.68832 9.19906 1292 ft 11 kts 155°
2026-05-05 19:27 48.68835 9.20022 1289 ft 15 kts 67°
2026-05-05 19:27 48.68871 9.20197 1287 ft 20 kts 71°
2026-05-05 19:27 48.68911 9.20412 1280 ft 21 kts 74°
2026-05-05 19:27 48.68944 9.20584 1277 ft 18 kts 73°
2026-05-05 19:28 48.68984 9.20792 1272 ft 23 kts 74°
2026-05-05 19:28 48.69031 9.21047 1265 ft 26 kts 73°
2026-05-05 19:28 48.69072 9.21261 1260 ft 20 kts 75°
2026-05-05 19:28 48.69116 9.21492 1255 ft 25 kts 74°
2026-05-05 19:29 48.69169 9.21769 1256 ft 30 kts 74°
2026-05-05 19:29 48.69217 9.22025 1244 ft 21 kts 73°
2026-05-05 19:29 48.69262 9.22260 1242 ft 26 kts 73°
2026-05-05 19:29 48.69315 9.22548 1231 ft 30 kts 73°
2026-05-05 19:30 48.69372 9.22844 1224 ft 25 kts 73°
2026-05-05 19:30 48.69422 9.23107 1218 ft 28 kts 74°
2026-05-05 19:30 48.69479 9.23410 1211 ft 31 kts 75°
2026-05-05 19:30 48.69525 9.23649 1205 ft 21 kts 74°
2026-05-05 19:31 48.69569 9.23885 1200 ft 24 kts 73°
2026-05-05 19:31 48.69610 9.24096 1195 ft 21 kts 73°
2026-05-05 19:31 48.69574 9.24252 1192 ft 14 kts 120°
2026-05-05 19:31 48.69510 9.24313 1191 ft 7 kts 163°
2026-05-05 19:32 48.69497 9.24318 1191 ft 0 kts 165°
2026-05-05 19:33 48.69484 9.24323 1191 ft 5 kts 165°
2026-05-05 19:33 48.69433 9.24332 1189 ft 10 kts 188°
2026-05-05 19:33 48.69383 9.24263 1191 ft 10 kts 244°
2026-05-05 19:33 48.69359 9.24153 1193 ft 12 kts 253°
2026-05-05 19:34 48.69305 9.23872 1199 ft 56 kts 254°
2026-05-05 19:34 48.69143 9.23012 1222 ft 111 kts 253°
2026-05-05 19:34 48.68893 9.21690 1347 ft 140 kts 253°
2026-05-05 19:35 48.68372 9.18867 2391 ft 139 kts 255°
2026-05-05 19:35 48.68156 9.17470 2938 ft 136 kts 255°
2026-05-05 19:35 48.67925 9.16028 3284 ft 148 kts 254°
2026-05-05 19:35 48.67653 9.14466 3573 ft 162 kts 253°
2026-05-05 19:36 48.67324 9.12716 3938 ft 184 kts 253°
2026-05-05 19:36 48.66927 9.10751 4408 ft 205 kts 251°
2026-05-05 19:36 48.66457 9.08598 4982 ft 225 kts 251°
2026-05-05 19:36 48.65910 9.06369 6103 ft 224 kts 243°
2026-05-05 19:37 48.64936 9.04570 7210 ft 227 kts 219°
2026-05-05 19:37 48.63462 9.03621 8221 ft 237 kts 192°
2026-05-05 19:37 48.61776 9.03897 9188 ft 254 kts 164°
2026-05-05 19:37 48.60289 9.05422 10143 ft 270 kts 136°
2026-05-05 19:38 48.59354 9.07915 11041 ft 283 kts 109°
2026-05-05 19:38 48.59212 9.10929 11985 ft 293 kts 83°
2026-05-05 19:38 48.59881 9.13856 12793 ft 305 kts 66°
2026-05-05 19:38 48.60751 9.16907 13257 ft 326 kts 71°
2026-05-05 19:39 48.61393 9.20332 13641 ft 349 kts 80°